Location: Unspecified
(0.0000°N, 0.0000°E)
Time: 20:42:58
(UTC+00:00)

ESSA 4 - Visible Passes

Search period start: 16 March 2026 00:00
Search period end: 26 March 2026 00:00
Orbit: 1326 x 1439 km, 102.1° (Epoch: 16 March)

Date Brightness Start Highest point End Pass type
(mag) Time Alt. Az. Time Alt. Az. Time Alt. Az.
16 Mar 11.5 05:05:07 10° SE 05:11:21 25° ENE 05:17:26 10° NNE visible
16 Mar 11.0 19:12:07 10° NNW 19:18:46 31° WNW 19:25:36 10° SW visible
17 Mar 10.5 05:37:39 10° SE 05:45:22 47° ENE 05:52:52 10° N visible
17 Mar 11.8 19:48:41 10° NW 19:52:46 15° WNW 19:56:53 10° WSW visible
18 Mar 9.6 18:28:01 10° N 18:35:50 71° WNW 18:43:52 10° SSW visible
19 Mar 11.7 04:57:00 10° ESE 05:02:28 20° ENE 05:07:49 10° NNE visible
19 Mar 10.7 19:02:47 10° N 19:09:51 38° WNW 19:17:08 10° SW visible
20 Mar 10.8 05:29:04 10° SE 05:36:28 39° ENE 05:43:38 10° N visible
20 Mar 11.7 19:38:43 10° NNW 19:43:51 19° WNW 19:49:06 10° WSW visible
21 Mar 9.4 18:19:01 10° NNE 18:26:55 84° WNW 18:35:03 10° SSW visible
22 Mar 11.9 04:49:07 10° ESE 04:53:33 16° ENE 04:57:56 10° NE visible
22 Mar 10.4 18:53:33 10° N 19:00:57 46° WNW 19:08:35 10° SW visible
23 Mar 11.1 05:20:36 10° SE 05:27:33 33° ENE 05:34:20 10° NNE visible
23 Mar 11.4 19:29:03 10° NNW 19:34:58 24° WNW 19:41:01 10° WSW visible
24 Mar 12.1 20:08:02 10° WNW 20:08:55 10° WNW 20:09:48 10° W visible
25 Mar 12.1 04:41:47 10° E 04:44:40 12° ENE 04:47:34 10° NE visible
25 Mar 10.1 18:44:23 10° N 18:52:03 55° WNW 18:59:56 10° SSW visible
